Home   Weather   Minas   Past weeks
Flag for Uruguay

Past Weather in Minas, Uruguay — Yesterday and Last 2 Weeks

Now
48 °F

Fog.


Feels Like: 47 °F
Forecast: 67 / 43 °F
Wind: 3 mph from West

Location: Capitan Corbeta

Current Time: Oct 22, 2019 at 3:53:08 am

Latest Report: Oct 22, 2019 at 3:00 am


Visibility: 0 mi

Pressure: 29.98 "Hg

Humidity: 94%

Dew Point: 46 °F

Location of MinasLocation

Past Weather in Minas — Graph

°F

Minas Temperature Yesterday

Maximum temperature yesterday: 59 °F (at 3:00 pm)
Minimum temperature yesterday: 50 °F (at 11:26 pm)
Average temperature yesterday: 55 °F

High & Low Weather Summary for the Past Weeks

 TemperatureHumidityPressure
High84 °F (Oct 10, 3:00 pm)100% (Oct 7, 4:00 am)30.45 "Hg (Oct 7, 4:00 am)
Low45 °F (Oct 20, 2:00 am)22% (Oct 8, 2:00 pm)29.59 "Hg (Oct 12, 1:00 pm)
Average60 °F80%30.05 "Hg
* Reported Oct 7 2:00 am — Oct 22 2:00 am, Minas. Weather by CustomWeather, © 2019

Note: Actual official high and low records may vary slightly from our data, if they occured in-between our weather recording intervals... More about our weather records

Advertising

Minas Weather History for the Previous 24 Hours

Scroll right to see more
 ConditionsComfort  
Time TempWeatherWind HumidityBarometerVisibility
2:00 am
Tue, Oct 22
48 °FFog.5 mph100%29.98 "Hg0 mi
1:00 am48 °FFog.5 mph100%30.01 "Hg1 mi
12:31 am50 °FFog.3 mph94%30.01 "Hg3 mi
12:00 am50 °FLight fog.3 mph94%30.01 "HgN/A
11:26 pm
Mon, Oct 21
50 °FLight fog.2 mph100%30.01 "HgN/A
11:00 pm52 °FFog.2 mph94%30.01 "HgN/A
10:00 pm52 °FClear.No wind94%30.01 "Hg10 mi
9:00 pm52 °FClear.No wind100%30.01 "Hg10 mi
8:00 pm54 °FPassing clouds.3 mph88%30.01 "HgN/A
7:00 pm55 °FPartly cloudy.5 mph88%30.01 "HgN/A
6:00 pm57 °FCloudy.7 mph82%30.01 "HgN/A
5:00 pm57 °FMostly cloudy.9 mph88%30.01 "Hg5 mi
4:00 pm57 °FRain. Mostly cloudy.9 mph94%29.98 "Hg5 mi
3:30 pm59 °FLight rain. Mostly cloudy.12 mph82%29.98 "Hg3 mi
3:00 pm59 °FMostly cloudy.12 mph82%30.01 "Hg5 mi
2:00 pm57 °FMostly cloudy.9 mph94%30.01 "Hg5 mi
1:00 pm55 °FRain. Fog.9 mph100%30.04 "Hg1 mi
12:38 pm57 °FRain. Fog.7 mph94%30.04 "Hg1 mi
12:00 pm57 °FLight rain. Fog.6 mph94%30.04 "Hg3 mi
11:00 am57 °FLight rain. Fog.5 mph88%30.04 "Hg2 mi
10:00 am55 °FRain. Fog.5 mph94%30.04 "Hg2 mi
9:00 am55 °FRain. Fog.7 mph100%30.07 "Hg2 mi
8:00 am55 °FLight rain. Fog.2 mph94%30.07 "Hg2 mi
7:00 am55 °FLight rain. Fog.3 mph94%30.07 "Hg3 mi
6:00 am55 °FLight rain. Fog.No wind94%30.04 "Hg3 mi
5:26 am54 °FLight rain. Fog.5 mph94%30.04 "Hg3 mi
5:00 am55 °FLight rain. Mostly cloudy.No wind88%30.04 "HgN/A
4:00 am55 °FLight rain. Partly cloudy.3 mph88%30.04 "HgN/A
3:00 am55 °FLight rain. Partly cloudy.6 mph88%30.04 "HgN/A
Weather by CustomWeather, © 2019

See weather overview